Content
SEND FEEDBACK

Daily
Averages
Monthly
Summary
France

BORDEAUX, FRANCE


Home > Europe > France
Elevation: 200 feet     Latitude: 44 50N     Longitude: 000 42W

WEATHER
 
SELECT A DAY
Number of Records: 330,539;   Date Range: 7/1/96 - 11/22/14
 
SHARE

PRINT THIS DATA

[ ← Previous Day ]
WEATHER ALMANAC - MARCH 19, 2013
[ Next Day → ]
[ °C ]   °F
Weather ElementAverageHighLow
Temperature47.1 °F55.4 °F (2:30 pm)39.2 °F (3:30 am)
Dewpoint39.6 °F42.8 °F (9:00 am)35.6 °F (12:30 am)
Humidity75.9 %93 % (4:30 am)48 % (7:00 pm)
Barometer29.61 in29.68 in (1:00 am)29.53 in (5:30 pm)
Wind Speed7.6 mph13.8 mph (12:30 pm)
Weather ElementAverage
Visibility6.2 mi
Wind DirectionSSW (211.4 °)

Weather ElementTotal
Precipitation---
Heating Degree Days17.7 (Base 65)
Averaged from 51 records on March 19, 2013
WEATHER CONDITIONS BREAKOUT
WIND DIRECTION BREAKOUT
WEATHER BY HOUR - MARCH 19, 2013
[ °C ]   °F
Local TimeTemperatureDewpointHumidityBarometerVisibilityWind DirectionWind SpeedGust SpeedPrecipitationEventsConditions
12:30 AM41.0 °F35.6 °F81 %29.65 in6.2 miSSW (210°)4.6 mphPartly Cloudy
1:00 AM41.0 °F37.0 °F81 %29.68 inSW (220°)9.2 mphPartly Cloudy
1:00 AM41.0 °F37.4 °F87 %29.65 in6.2 miSW (220°)9.2 mphPartly Cloudy
1:30 AM41.0 °F37.4 °F87 %29.65 in6.2 miSW (220°)5.8 mphPartly Cloudy
2:00 AM41.0 °F37.4 °F87 %29.65 in6.2 miSW (220°)8.1 mphPartly Cloudy
2:30 AM41.0 °F37.4 °F87 %29.65 in6.2 miSW (230°)8.1 mphMostly Cloudy
3:00 AM41.0 °F35.6 °F81 %29.65 in6.2 miSSW (200°)6.9 mphPartly Cloudy
3:30 AM39.2 °F35.6 °F87 %29.65 in6.2 miSSW (200°)6.9 mph
4:00 AM39.2 °F35.6 °F87 %29.65 in6.2 miSouth (180°)9.2 mph
4:30 AM39.2 °F37.4 °F93 %29.65 in6.2 miSouth (180°)9.2 mph
5:00 AM39.2 °F37.4 °F93 %29.65 in6.2 miSouth (180°)6.9 mphMostly Cloudy
5:30 AM39.2 °F37.4 °F93 %29.65 in6.2 miSouth (190°)6.9 mph
6:00 AM39.2 °F37.4 °F93 %29.65 in6.2 miSouth (180°)9.2 mph
6:30 AM39.2 °F37.4 °F93 %29.65 in6.2 miSouth (180°)6.9 mph
7:00 AM40.0 °F38.0 °F88 %29.68 inSSW (200°)6.9 mphPartly Cloudy
7:00 AM39.2 °F37.4 °F93 %29.65 in6.2 miSSW (200°)6.9 mphMostly Cloudy
7:30 AM41.0 °F37.4 °F87 %29.65 in6.2 miVariable3.5 mphMostly Cloudy
8:00 AM41.0 °F39.2 °F93 %29.65 in6.2 miSSE (160°)4.6 mphMostly Cloudy
8:30 AM42.8 °F41.0 °F93 %29.65 in6.2 miSouth (180°)8.1 mphOvercast
9:00 AM44.6 °F42.8 °F93 %29.65 in6.2 miSouth (190°)9.2 mphMostly Cloudy
9:30 AM44.6 °F41.0 °F87 %29.65 in6.2 miSouth (190°)11.5 mphMostly Cloudy
10:00 AM46.4 °F42.8 °F87 %29.65 in6.2 miSSW (210°)10.4 mphMostly Cloudy
10:30 AM48.2 °F42.8 °F82 %29.65 in6.2 miSouth (190°)9.2 mphMostly Cloudy
11:00 AM50.0 °F42.8 °F76 %29.65 in6.2 miSouth (190°)10.4 mphMostly Cloudy
11:30 AM50.0 °F42.8 °F76 %29.65 in6.2 miSouth (190°)9.2 mphMostly Cloudy
12:00 PM51.8 °F42.8 °F71 %29.62 in6.2 miSSW (200°)11.5 mphMostly Cloudy
12:30 PM51.8 °F41.0 °F67 %29.62 in6.2 miSSW (210°)13.8 mphMostly Cloudy
1:00 PM52.0 °F42.0 °F60 %29.64 inSW (220°)10.4 mphPartly Cloudy
1:00 PM51.8 °F42.8 °F71 %29.62 in6.2 miSW (220°)10.4 mphMostly Cloudy
1:30 PM53.6 °F42.8 °F67 %29.62 in6.2 miSW (220°)10.4 mphMostly Cloudy
2:00 PM53.6 °F39.2 °F58 %29.59 in6.2 miSW (230°)11.5 mphMostly Cloudy
2:30 PM55.4 °F39.2 °F54 %29.59 in6.2 miSW (230°)13.8 mphMostly Cloudy
3:00 PM55.4 °F39.2 °F54 %29.56 in6.2 miWest (260°)12.7 mphMostly Cloudy
3:30 PM55.4 °F39.2 °F54 %29.56 in6.2 miWSW (250°)9.2 mphScattered Clouds
4:00 PM55.4 °F39.2 °F54 %29.56 in6.2 miWest (260°)8.1 mphMostly Cloudy
4:30 PM55.4 °F41.0 °F58 %29.56 in6.2 miWSW (250°)6.9 mphMostly Cloudy
5:00 PM55.4 °F41.0 °F58 %29.56 in6.2 miSW (230°)8.1 mphMostly Cloudy
5:30 PM55.4 °F39.2 °F54 %29.53 in6.2 miSW (230°)5.8 mphPartly Cloudy
6:00 PM53.6 °F39.2 °F58 %29.53 in6.2 miSW (230°)4.6 mph
6:30 PM53.6 °F41.0 °F62 %29.53 in6.2 miWest (260°)5.8 mph
7:00 PM52.0 °F38.0 °F48 %29.57 inWest (260°)5.8 mphPartly Cloudy
7:00 PM51.8 °F39.2 °F62 %29.56 in6.2 miWest (260°)5.8 mph
7:30 PM51.8 °F39.2 °F62 %29.56 in6.2 miWest (280°)5.8 mph
8:00 PM50.0 °F39.2 °F66 %29.56 in6.2 miWNW (290°)4.6 mph
8:30 PM48.2 °F39.2 °F71 %29.56 in6.2 miVariable2.3 mph
9:00 PM48.2 °F41.0 °F76 %29.56 in6.2 miWest (270°)4.6 mph
9:30 PM48.2 °F41.0 °F76 %29.56 in6.2 miWest (270°)5.8 mph
10:00 PM48.2 °F41.0 °F76 %29.59 in6.2 miWSW (250°)2.3 mph
10:30 PM46.4 °F42.8 °F87 %29.59 in6.2 miSW (220°)3.5 mphOvercast
11:00 PM48.2 °F42.8 °F82 %29.59 in6.2 miWSW (240°)3.5 mphMostly Cloudy
11:30 PM48.2 °F42.8 °F82 %29.59 in6.2 miSW (230°)4.6 mphMostly Cloudy
Hourly data recorded from LFBD, located miles away from Bordeaux, France







STORIES FROM OUR PARTNERS